Location: Nashville
(36.1660°N, 86.7840°W)
Time: 04:57:22
(UTC-06:00)

Envisat - Visible Passes

Search period start: 06 December 2021 00:00
Search period end: 16 December 2021 00:00
Orbit: 764 x 766 km, 98.2° (Epoch: 05 December)

Date Brightness Start Highest point End Pass type
(mag) Time Alt. Az. Time Alt. Az. Time Alt. Az.
06 Dec 6.0 03:26:01 10° ENE 03:28:03 12° E 03:30:04 10° ESE visible
06 Dec 2.9 05:02:25 10° N 05:07:27 64° WNW 05:12:27 10° SSW visible
07 Dec 3.7 04:25:38 10° NNE 04:30:36 54° E 04:35:33 10° S visible
07 Dec 4.4 06:06:06 10° NNW 06:09:07 16° WNW 06:12:10 10° WSW visible
07 Dec 6.0 17:18:44 10° SW 17:21:34 15° W 17:24:25 10° WNW visible
08 Dec 5.2 03:49:36 10° NE 03:53:35 23° E 03:57:32 10° SSE visible
08 Dec 3.5 05:28:01 10° N 05:32:37 35° WNW 05:37:12 10° SW visible
09 Dec 2.8 04:50:49 10° N 04:55:55 83° WNW 05:00:58 10° SSW visible
10 Dec 4.2 04:14:14 10° NNE 04:19:01 41° E 04:23:47 10° SSE visible
10 Dec 4.2 05:54:01 10° NNW 05:57:42 21° WNW 06:01:22 10° WSW visible
10 Dec 5.8 17:06:18 10° SW 17:09:55 19° W 17:13:32 10° NW visible
11 Dec 5.6 03:38:34 10° NE 03:41:56 18° E 03:45:17 10° SE visible
11 Dec 3.2 05:16:18 10° N 05:21:08 46° WNW 05:25:57 10° SW visible
12 Dec 3.1 04:39:16 10° NNE 04:44:21 76° E 04:49:26 10° S visible
12 Dec 4.7 06:21:01 10° NW 06:22:41 12° WNW 06:24:20 10° W visible
12 Dec 6.5 17:35:08 10° W 17:35:28 10° W 17:35:47 10° W visible
13 Dec 4.6 04:02:53 10° NE 04:07:25 32° E 04:11:54 10° SSE visible
13 Dec 3.9 05:42:05 10° NNW 05:46:15 26° WNW 05:50:23 10° WSW visible
13 Dec 5.6 16:54:08 10° SSW 16:58:16 25° W 17:02:26 10° NW visible
14 Dec 5.9 03:27:50 10° ENE 03:30:16 13° E 03:32:42 10° ESE visible
14 Dec 2.9 05:04:37 10° N 05:09:37 59° WNW 05:14:36 10° SSW visible
15 Dec 3.5 04:27:47 10° NNE 04:32:48 58° E 04:37:47 10° S visible
15 Dec 4.5 06:08:28 10° NNW 06:11:16 15° WNW 06:14:04 10° W visible
15 Dec 6.1 17:21:16 10° WSW 17:23:47 14° W 17:26:19 10° WNW visible
